Retour au catalogue

CZ-4C DEB

ActifLEO
NORAD 43338·DEBRIS·🇨🇳 China

Lancé Apr 10, 2018 depuis Jiuquan Satellite Launch Center

Loading…

Prochains Passages (prochaines 24 heures)

TLE

FraisSource: Space-Track

Époque: Sep 14, 2026, 07:41 UTC

1 43338U 18034H   26257.32077383 -.00000072  00000-0  24944-4 0  9999
2 43338  63.3917 230.6971 0282825   8.5178 352.0503 13.44727563413846

Suivez CZ-4C DEB en temps réel avec AllMySat

Download on the App Store